DW9945 Weather Reports


Display with metric or nautical units.
time (UTC)temp
F
wind
direction
speed
MPH
gust
MPH
rain 1hr
in
rain 24hr
in
rain mn
in
humidity
%
barometer
mb
20260508054008 47 25 5.0 8.0 0.00 0.26 0.00 87 1012.4
20260508053508 47 9 4.0 7.0 0.00 0.26 0.00 88 1012.4
20260508053008 47 23 4.0 7.0 0.00 0.26 0.00 88 1012.3
20260508052508 47 24 5.0 8.0 0.00 0.26 0.00 88 1012.3
20260508052008 47 24 5.0 9.0 0.00 0.26 0.00 88 1012.2
20260508051508 47 26 5.0 7.0 0.00 0.26 0.00 88 1012.3
20260508051008 47 21 5.0 8.0 0.00 0.26 0.00 89 1012.3
20260508050508 46 22 3.0 7.0 0.00 0.26 0.00 89 1012.3
20260508050008 46 8 3.0 5.0 0.00 0.26 0.00 90 1012.4
20260508045508 46 17 3.0 7.0 0.00 0.26 0.00 90 1012.4
20260508044508 45 12 3.0 5.0 0.00 0.26 0.00 90 1012.2
20260508044007 45 2 2.0 3.0 0.00 0.26 0.00 90 1012.2
20260508043508 45 355 0.0 3.0 0.00 0.26 0.00 89 1012.2
20260508043008 45 358 3.0 5.0 0.00 0.26 0.00 89 1012.1
20260508042508 45 5 2.0 3.0 0.00 0.26 0.00 89 1012.1
20260508042008 46 22 3.0 5.0 0.00 0.26 0.00 89 1012.1
20260508041508 46 20 3.0 7.0 0.00 0.26 0.00 89 1012.1
20260508041007 46 13 3.0 5.0 0.00 0.26 0.00 89 1012.0
20260508040507 46 19 3.0 5.0 0.00 0.26 0.00 89 1011.9
20260508040008 46 20 3.0 6.0 0.00 0.26 0.00 89 1011.9
20260508035507 46 16 0.0 3.0 0.00 0.26 0.00 90 1011.8
20260508035007 46 14 0.0 3.0 0.00 0.26 0.00 90 1011.8
20260508034507 46 14 3.0 3.0 0.00 0.26 0.00 89 1011.9
20260508033507 46 2 3.0 5.0 0.00 0.26 0.00 89 1011.9
20260508033007 46 16 4.0 6.0 0.00 0.26 0.00 88 1011.9
20260508032507 46 358 3.0 3.0 0.00 0.26 0.00 88 1011.9
20260508032008 47 0 2.0 7.0 0.00 0.26 0.00 88 1011.9
20260508031008 47 22 5.0 8.0 0.00 0.26 0.00 88 1011.7
20260508030507 47 25 5.0 9.0 0.00 0.26 0.00 88 1011.7
20260508030008 47 15 5.0 8.0 0.00 0.26 0.00 88 1011.7
20260508025507 46 25 5.0 9.0 0.00 0.26 0.00 88 1011.7
20260508025008 47 13 5.0 9.0 0.00 0.26 0.00 88 1011.7
20260508024508 47 15 6.0 9.0 0.00 0.26 0.00 88 1011.7
20260508024007 47 21 6.0 10.0 0.00 0.26 0.00 88 1011.7
20260508023508 47 25 5.0 9.0 0.00 0.26 0.00 88 1011.8
20260508023008 47 25 7.0 10.0 0.00 0.26 0.00 88 1011.8
20260508022507 46 32 6.0 9.0 0.00 0.26 0.00 89 1011.9
20260508022008 46 26 5.0 9.0 0.00 0.26 0.00 89 1011.9
20260508021507 46 22 3.0 8.0 0.00 0.26 0.00 89 1012.0
20260508021008 46 19 4.0 8.0 0.00 0.26 0.00 89 1012.0
20260508020508 46 23 4.0 7.0 0.00 0.26 0.00 89 1012.1
20260508020008 46 24 4.0 8.0 0.00 0.26 0.00 89 1012.2
20260508015508 46 31 5.0 8.0 0.00 0.26 0.00 90 1012.2
20260508015007 46 25 3.0 5.0 0.00 0.26 0.00 90 1012.3
20260508014507 46 15 3.0 5.0 0.00 0.26 0.00 90 1012.3
20260508014008 46 6 3.0 5.0 0.00 0.26 0.00 89 1012.4
20260508013508 46 2 3.0 5.0 0.00 0.26 0.00 89 1012.4
20260508013009 46 5 2.0 3.0 0.00 0.26 0.00 89 1012.5
20260508012508 46 22 3.0 5.0 0.00 0.26 0.00 90 1012.4
20260508012007 46 28 3.0 5.0 0.00 0.26 0.00 90 1012.5
20260508011507 46 13 3.0 5.0 0.00 0.26 0.00 90 1012.7
20260508011008 46 20 3.0 3.0 0.00 0.26 0.00 90 1012.8
20260508005519 46 26 2.0 3.0 0.00 0.26 0.00 90 1012.9
20260508005019 46 26 2.0 5.0 0.00 0.26 0.00 90 1012.9
20260508004519 46 17 3.0 5.0 0.00 0.26 0.00 90 1013.0
20260508004018 46 17 2.0 5.0 0.00 0.26 0.00 90 1013.0
20260508003518 46 23 2.0 3.0 0.00 0.26 0.00 90 1013.2
20260508003018 46 17 3.0 3.0 0.00 0.26 0.00 90 1013.2
20260508002518 46 8 3.0 3.0 0.00 0.26 0.00 90 1013.2
20260508002018 46 15 2.0 3.0 0.00 0.26 0.00 90 1013.3
20260508001518 46 15 2.0 3.0 0.00 0.26 0.00 90 1013.3
20260508001018 46 13 2.0 3.0 0.00 0.26 0.00 90 1013.3
20260508000518 46 27 2.0 3.0 0.00 0.26 0.00 90 1013.3
20260508000018 46 27 2.0 3.0 0.00 0.26 0.00 90 1013.3
20260507235521 46 27 1.0 3.0 0.00 0.26 0.00 90 1013.2
20260507235018 46 26 2.0 5.0 0.00 0.26 0.00 90 1013.2
20260507234518 46 25 2.0 3.0 0.00 0.26 0.00 90 1013.3
20260507234018 46 25 3.0 3.0 0.00 0.26 0.00 89 1013.4
20260507233519 46 25 2.0 3.0 0.00 0.26 0.00 89 1013.4
20260507232507 46 25 2.0 3.0 0.00 0.26 0.00 89 1013.5
20260507232007 46 13 3.0 5.0 0.00 0.26 0.00 89 1013.4
20260507231518 46 29 4.0 5.0 0.00 0.26 0.00 88 1013.4
20260507231018 47 29 3.0 3.0 0.00 0.26 0.00 87 1013.4
20260507230018 48 29 0.0 0.0 0.00 0.26 0.00 88 1013.4
20260507225518 48 29 0.0 0.0 0.00 0.26 0.00 88 1013.4
20260507225018 47 29 0.0 0.0 0.00 0.26 0.00 89 1013.5
20260507224518 47 29 0.0 0.0 0.00 0.26 0.00 88 1013.5
20260507224018 48 29 0.0 0.0 0.00 0.26 0.00 88 1013.6
20260507223007 48 29 0.0 0.0 0.00 0.26 0.00 88 1013.6
20260507222518 48 29 0.0 0.0 0.00 0.26 0.00 88 1013.6
20260507222018 48 29 0.0 0.0 0.00 0.26 0.00 88 1013.7
20260507221518 48 29 0.0 0.0 0.00 0.26 0.00 88 1013.5
20260507221018 48 29 0.0 0.0 0.00 0.26 0.00 88 1013.6
20260507220519 48 29 0.0 0.0 0.00 0.26 0.00 88 1013.6
20260507220019 48 29 0.0 0.0 0.00 0.26 0.00 88 1013.6
20260507215518 48 29 0.0 0.0 0.00 0.26 0.26 88 1013.6
20260507215018 48 29 0.0 0.0 0.00 0.26 0.26 89 1013.6
20260507214507 48 29 0.0 0.0 0.00 0.26 0.26 88 1013.6
20260507214018 48 29 0.0 0.0 0.00 0.26 0.26 88 1013.4
20260507213518 48 29 0.0 0.0 0.00 0.26 0.26 88 1013.4
20260507212518 49 0 0.0 0.0 0.00 0.26 0.26 88 1013.4
20260507212018 49 0 0.0 0.0 0.00 0.26 0.26 88 1013.3
20260507211519 48 0 0.0 0.0 0.00 0.26 0.26 87 1013.3
20260507210519 49 0 0.0 0.0 0.00 0.26 0.26 85 1013.3
20260507210018 49 0 0.0 0.0 0.00 0.26 0.26 85 1013.2
20260507205517 49 0 0.0 0.0 0.00 0.26 0.26 85 1012.9
20260507205007 49 0 0.0 0.0 0.00 0.26 0.26 85 1012.8
20260507204518 49 0 0.0 0.0 0.00 0.26 0.26 85 1012.7
20260507204007 49 349 0.0 0.0 0.00 0.26 0.26 83 1012.6
20260507203518 50 349 0.0 0.0 0.00 0.26 0.26 82 1012.5
20260507203018 51 349 0.0 0.0 0.00 0.26 0.26 81 1012.5
20260507202518 52 105 0.0 0.0 0.00 0.26 0.26 83 1012.3
20260507201518 52 175 2.0 5.0 0.00 0.26 0.26 84 1012.2
20260507201018 51 69 2.0 3.0 0.00 0.26 0.26 84 1012.2
20260507200519 51 5 0.0 0.0 0.00 0.26 0.26 83 1012.3
20260507195507 52 5 0.0 0.0 0.00 0.26 0.26 81 1012.1
20260507195018 52 5 0.0 0.0 0.00 0.26 0.26 80 1012.0
20260507194018 52 5 0.0 0.0 0.00 0.26 0.26 82 1011.9
20260507193018 52 350 0.0 0.0 0.00 0.26 0.26 80 1011.6
20260507192506 52 350 0.0 3.0 0.00 0.26 0.26 81 1011.6
20260507192018 52 353 3.0 5.0 0.00 0.26 0.26 82 1011.4
20260507191018 52 341 3.0 5.0 0.00 0.26 0.26 80 1011.2
20260507190518 53 340 4.0 5.0 0.00 0.26 0.26 80 1011.2
20260507190008 53 340 5.0 5.0 0.00 0.26 0.26 79 1011.0
20260507185518 54 341 3.0 5.0 0.00 0.26 0.26 78 1011.1
20260507184519 55 357 3.0 5.0 0.00 0.26 0.26 77 1010.8
20260507183018 56 3 3.0 3.0 0.00 0.26 0.26 73 1010.7
20260507182507 56 5 2.0 3.0 0.00 0.26 0.26 74 1010.7
20260507182018 56 5 2.0 5.0 0.00 0.26 0.26 72 1010.6
20260507181518 57 355 3.0 5.0 0.00 0.26 0.26 72 1010.5
20260507181017 57 331 2.0 3.0 0.00 0.26 0.26 72 1010.5
20260507180517 57 317 3.0 3.0 0.00 0.26 0.26 69 1010.6
20260507180018 57 317 3.0 5.0 0.00 0.26 0.26 69 1010.7
20260507175518 57 317 3.0 7.0 0.00 0.26 0.26 70 1010.7
20260507175018 56 304 2.0 8.0 0.00 0.26 0.26 70 1010.7
20260507174518 56 316 7.0 12.0 0.00 0.26 0.26 72 1010.7
20260507174018 56 314 7.0 12.0 0.00 0.26 0.26 71 1010.7
20260507173518 56 308 6.0 12.0 0.00 0.26 0.26 71 1010.6
20260507173018 56 301 9.0 12.0 0.00 0.26 0.26 72 1010.6
20260507172517 55 320 5.0 8.0 0.00 0.26 0.26 72 1010.4
20260507172017 54 286 7.0 12.0 0.00 0.26 0.26 76 1010.3
20260507171517 54 314 5.0 12.0 0.00 0.26 0.26 76 1010.3
20260507171018 53 135 1.0 9.0 0.00 0.26 0.26 75 1010.1
20260507165517 53 89 4.0 12.0 0.01 0.26 0.26 76 1010.3
20260507164517 53 98 5.0 9.0 0.02 0.26 0.26 75 1010.3
20260507164017 52 96 6.0 10.0 0.02 0.26 0.26 77 1010.5
20260507163517 52 128 5.0 13.0 0.05 0.26 0.26 78 1010.5
20260507163018 52 99 7.0 12.0 0.06 0.26 0.26 79 1010.5
20260507162517 52 96 6.0 10.0 0.06 0.26 0.26 80 1010.7
20260507162017 52 102 5.0 9.0 0.06 0.26 0.26 82 1010.7
20260507161518 52 104 5.0 10.0 0.07 0.26 0.26 82 1010.8
20260507161017 52 120 5.0 8.0 0.07 0.26 0.26 82 1010.8
20260507160518 52 93 5.0 8.0 0.07 0.26 0.26 84 1010.9
20260507160018 52 106 3.0 7.0 0.07 0.26 0.26 82 1011.2
20260507155517 51 136 2.0 3.0 0.06 0.25 0.25 83 1011.3
20260507155018 51 292 4.0 8.0 0.06 0.25 0.25 83 1011.4
20260507154518 51 307 6.0 9.0 0.06 0.24 0.24 83 1011.3
20260507153518 52 284 6.0 10.0 0.03 0.21 0.21 81 1011.4
20260507152506 52 311 5.0 9.0 0.04 0.20 0.20 78 1011.2
20260507152017 53 285 6.0 12.0 0.04 0.20 0.20 76 1011.2
20260507151517 53 281 3.0 12.0 0.03 0.19 0.19 76 1011.3
20260507151017 52 325 7.0 12.0 0.03 0.19 0.19 77 1011.4
20260507150518 52 1 7.0 12.0 0.03 0.19 0.19 83 1011.4
20260507145517 53 28 7.0 10.0 0.04 0.19 0.19 80 1011.3
20260507145017 53 349 6.0 9.0 0.04 0.19 0.19 80 1011.4
20260507144517 53 348 7.0 10.0 0.06 0.19 0.19 79 1011.3
20260507144017 53 351 5.0 8.0 0.12 0.19 0.19 78 1011.4
20260507143018 53 336 5.0 8.0 0.16 0.18 0.18 81 1011.4
20260507142517 53 350 3.0 5.0 0.16 0.17 0.17 79 1011.2
20260507141517 53 60 3.0 10.0 0.16 0.16 0.16 77 1011.1
20260507141017 53 90 6.0 12.0 0.16 0.16 0.16 77 1011.0
20260507140518 53 99 7.0 10.0 0.16 0.16 0.16 75 1011.2
20260507140018 53 122 7.0 12.0 0.16 0.16 0.16 73 1011.3
20260507135517 53 132 4.0 12.0 0.15 0.15 0.15 72 1011.2
20260507135017 53 122 2.0 9.0 0.15 0.15 0.15 73 1011.4
20260507134518 54 155 5.0 22.0 0.13 0.13 0.13 70 1011.4
20260507134017 54 188 14.0 26.0 0.07 0.07 0.07 71 1011.6
20260507133517 53 167 6.0 15.0 0.05 0.05 0.05 75 1011.5
20260507133018 53 163 7.0 18.0 0.02 0.02 0.02 79 1011.6
20260507132517 54 173 10.0 18.0 0.01 0.01 0.01 76 1011.4
20260507132017 55 166 11.0 20.0 0.01 0.01 0.01 73 1011.3
20260507131517 55 160 9.0 17.0 0.00 0.00 0.00 75 1011.2
20260507130517 55 174 10.0 17.0 0.00 0.00 0.00 75 1011.1
20260507130027 55 170 7.0 17.0 0.00 0.00 0.00 75 1011.0
20260507125517 55 158 9.0 16.0 0.00 0.00 0.00 75 1010.7
20260507124518 55 149 11.0 20.0 0.00 0.00 0.00 76 1010.4
20260507123517 56 159 10.0 20.0 0.00 0.00 0.00 75 1010.7
20260507123017 56 145 10.0 17.0 0.00 0.00 0.00 75 1010.7
20260507122517 56 150 5.0 13.0 0.00 0.00 0.00 75 1010.8
20260507122017 57 166 10.0 20.0 0.00 0.00 0.00 72 1010.6
20260507121517 58 153 9.0 20.0 0.00 0.00 0.00 67 1010.5
20260507121017 60 154 10.0 16.0 0.00 0.00 0.00 62 1010.5
20260507120517 61 176 5.0 9.0 0.00 0.00 0.00 61 1010.3
20260507120017 61 169 3.0 6.0 0.00 0.00 0.00 61 1010.5
20260507115517 61 243 3.0 6.0 0.00 0.00 0.00 61 1010.3
20260507115017 62 162 1.0 3.0 0.00 0.00 0.00 61 1010.1
20260507114518 62 206 1.0 7.0 0.00 0.00 0.00 61 1010.1
20260507114017 62 185 3.0 10.0 0.00 0.00 0.00 60 1010.1
20260507113518 62 225 2.0 3.0 0.00 0.00 0.00 61 1010.2
20260507113018 61 17 2.0 3.0 0.00 0.00 0.00 62 1010.5
20260507112517 61 33 0.0 5.0 0.00 0.00 0.00 62 1010.6
20260507112017 61 5 2.0 3.0 0.00 0.00 0.00 63 1010.6
20260507111507 60 286 4.0 6.0 0.00 0.00 0.00 64 1010.7
20260507111017 60 278 4.0 6.0 0.00 0.00 0.00 64 1010.8
20260507110517 60 321 4.0 8.0 0.00 0.00 0.00 65 1010.9
20260507110018 60 300 4.0 8.0 0.00 0.00 0.00 64 1010.8
20260507105517 61 307 3.0 7.0 0.00 0.00 0.00 64 1010.9
20260507105017 61 325 1.0 5.0 0.00 0.00 0.00 63 1011.0
20260507104517 61 232 0.0 2.0 0.00 0.00 0.00 64 1011.1
20260507103517 60 184 2.0 8.0 0.00 0.00 0.00 63 1011.3
20260507103018 60 185 1.0 7.0 0.00 0.00 0.00 64 1011.3
20260507102521 60 212 3.0 8.0 0.00 0.00 0.00 64 1011.3
20260507101019 59 177 2.0 6.0 0.00 0.00 0.00 66 1011.3
20260507100519 58 132 5.0 8.0 0.00 0.00 0.00 66 1011.3
20260507095519 59 5 2.0 5.0 0.00 0.00 0.00 66 1011.3
20260507095018 59 65 5.0 7.0 0.00 0.00 0.00 66 1011.5
20260507094519 59 76 4.0 9.0 0.00 0.00 0.00 66 1011.6
20260507094019 59 48 0.0 5.0 0.00 0.00 0.00 67 1011.6
20260507093519 58 16 2.0 7.0 0.00 0.00 0.00 68 1011.6
20260507093019 58 77 2.0 8.0 0.00 0.00 0.00 68 1011.6
20260507092519 58 70 2.0 7.0 0.00 0.00 0.00 69 1011.6
20260507091019 56 72 3.0 5.0 0.00 0.00 0.00 71 1011.7
20260507090519 56 77 2.0 3.0 0.00 0.00 0.00 72 1011.6
20260507090020 55 165 2.0 5.0 0.00 0.00 0.00 71 1011.7
20260507085519 55 82 0.0 2.0 0.00 0.00 0.00 73 1011.7
20260507084508 55 111 2.0 3.0 0.00 0.00 0.00 73 1011.7
20260507084019 55 139 0.0 0.0 0.00 0.00 0.00 74 1011.7
20260507083519 55 127 1.0 3.0 0.00 0.00 0.00 73 1011.7
20260507082518 56 77 3.0 8.0 0.00 0.00 0.00 71 1011.6
20260507082018 56 108 2.0 8.0 0.00 0.00 0.00 70 1011.6
20260507081519 56 86 4.0 8.0 0.00 0.00 0.00 70 1011.4
20260507081019 55 8 3.0 8.0 0.00 0.00 0.00 71 1011.5
20260507080019 55 30 4.0 6.0 0.00 0.00 0.00 72 1011.6
20260507075018 55 38 3.0 6.0 0.00 0.00 0.00 73 1011.6
20260507074519 55 23 3.0 7.0 0.00 0.00 0.00 73 1011.6
20260507074018 54 31 2.0 5.0 0.00 0.00 0.00 74 1011.6
20260507073019 54 66 5.0 8.0 0.00 0.00 0.00 73 1011.6
20260507072519 54 38 4.0 9.0 0.00 0.00 0.00 73 1011.6
20260507071519 54 48 5.0 9.0 0.00 0.00 0.00 73 1011.7
20260507071019 54 69 4.0 9.0 0.00 0.00 0.00 74 1011.6
20260507070519 54 69 3.0 6.0 0.00 0.00 0.00 74 1011.6
20260507070011 53 55 3.0 7.0 0.00 0.00 0.00 75 1011.5
20260507065519 53 57 3.0 7.0 0.00 0.00 0.00 76 1011.5
20260507065018 52 50 2.0 3.0 0.00 0.00 0.00 77 1011.3
20260507064519 52 29 4.0 9.0 0.00 0.00 0.00 77 1011.4
20260507063519 51 28 2.0 6.0 0.00 0.00 0.00 78 1011.2
20260507063019 51 37 2.0 5.0 0.00 0.00 0.00 78 1011.2
20260507062519 51 43 2.0 6.0 0.00 0.00 0.00 78 1011.2
20260507062007 51 34 3.0 8.0 0.00 0.00 0.00 78 1011.1
20260507061519 51 45 2.0 6.0 0.00 0.00 0.00 78 1011.1
20260507060519 51 56 5.0 9.0 0.00 0.00 0.00 77 1011.0
20260507060019 51 37 3.0 8.0 0.00 0.00 0.00 78 1010.9
20260507055519 50 41 4.0 9.0 0.00 0.00 0.00 78 1010.9
20260507054519 50 40 5.0 10.0 0.00 0.00 0.00 78 1010.9